Location: Dannhausen
(51.8650°N, 10.1026°E)
Time: 03:53:19
(UTC+00:00)

Mayak - Pass Details

Date: 09 April 2020
Orbit: 581 x 600 km, 97.5° (Epoch: 04 June)

Event Time Altitude Azimuth Distance (km) Brightness Sun altitude
Rises 20:24:01 0° 28° (NNE) 2,824 ? -19.2°
Reaches altitude 10° 20:27:01 10° 52° (NE) 1,915 ? -19.5°
Enters shadow 20:27:50 13° 62° (ENE) 1,747 ? -19.6°
